Flag for Spain Weather past 2 weeks in Málaga, Spain

Now
82 °F

Passing clouds.


Feels Like: 84 °F
Forecast: 64 / 96 °F
Wind: 9 mph from Southeast

Location: Malaga / Aeropuerto

Current Time: Jul 5, 2015 at 9:39:13 PM

Latest Report: Jul 5, 2015 at 9:00 PM


Visibility: N/A

Pressure: 29.98 "Hg

Humidity: 55%

Dew point: 64 °F

Location of MálagaLocation

Historic Weather in Málaga — Graph

°F

Málaga temperature yesterday

Maximum temperature yesterday: 86 °F (at 4:00 PM)
Minimum temperature yesterday: 72 °F (at 7:00 AM)
Average temperature yesterday: 78 °F

Past Weeks' High & Low Weather Summary

 TemperatureHumidityPressure
High93 °F (Jun 23, 2:30 PM)100% (Jun 25, 5:00 AM)30.18 "Hg (Jun 25, 5:00 AM)
Low63 °F (Jun 21, 7:00 AM)12% (Jun 23, 3:30 PM)29.92 "Hg (Jun 23, 3:00 AM)
Average77 °F55%30.04 "Hg
* Reported Jun 20 8:00 PM — Jul 5 8:30 PM, Málaga, Weather by CustomWeather, © 2015

Note: Actual official high and low records may vary slightly from our data, if they occured in-between our weather recording intervals... More about our weather records

Advertising

Málaga weather history for previous 24 hours

 ConditionsComfort  
Time TempWeatherWind HumidityBarometerVisibility
8:30 PM
Sun, Jul 5
82 °FPassing clouds.8 mph55%29.98 "HgN/A
8:00 PM82 °FPassing clouds.9 mph55%29.98 "HgN/A
7:30 PM82 °FPassing clouds.9 mph58%29.98 "HgN/A
7:00 PM84 °FPassing clouds.10 mph55%29.98 "HgN/A
6:30 PM84 °FSunny.12 mph55%29.98 "Hg10 mi
6:00 PM84 °FPassing clouds.10 mph55%29.98 "HgN/A
5:30 PM84 °FPassing clouds.13 mph55%30.01 "HgN/A
5:00 PM84 °FPassing clouds.13 mph55%30.01 "HgN/A
4:30 PM84 °FPassing clouds.13 mph51%30.01 "HgN/A
4:00 PM86 °FPassing clouds.13 mph49%30.01 "HgN/A
3:30 PM86 °FPassing clouds.13 mph52%30.04 "HgN/A
3:00 PM86 °FPassing clouds.10 mph49%30.04 "HgN/A
2:30 PM86 °FPassing clouds.10 mph52%30.04 "HgN/A
2:00 PM86 °FPassing clouds.9 mph55%30.04 "HgN/A
1:30 PM82 °FPassing clouds.10 mph66%30.04 "HgN/A
1:00 PM81 °FPassing clouds.9 mph70%30.04 "HgN/A
12:30 PM81 °FPassing clouds.8 mph70%30.04 "HgN/A
12:00 PM81 °FPassing clouds.8 mph70%30.04 "HgN/A
11:30 AM81 °FPassing clouds.8 mph70%30.04 "HgN/A
11:00 AM79 °FPassing clouds.7 mph74%30.04 "HgN/A
10:30 AM75 °FScattered clouds.8 mph83%30.04 "HgN/A
10:00 AM75 °FScattered clouds.9 mph83%30.04 "HgN/A
9:30 AM75 °FPassing clouds.9 mph78%30.04 "HgN/A
9:00 AM77 °FPassing clouds.8 mph74%30.04 "HgN/A
8:30 AM75 °FPassing clouds.8 mph74%30.04 "HgN/A
8:00 AM73 °FClear.No wind78%30.04 "Hg10 mi
7:30 AM70 °FClear.1 mph83%30.01 "Hg10 mi
7:00 AM72 °FClear.2 mph78%30.01 "Hg10 mi
6:30 AM72 °FPassing clouds.5 mph83%30.01 "HgN/A
5:30 AM73 °FClear.8 mph74%30.01 "Hg10 mi
5:00 AM73 °FClear.6 mph78%30.01 "Hg10 mi
4:30 AM72 °FClear.3 mph78%30.04 "Hg10 mi
4:00 AM73 °FClear.No wind78%30.04 "Hg10 mi
3:30 AM73 °FClear.No wind78%30.04 "Hg10 mi
3:00 AM73 °FClear.2 mph78%30.04 "Hg10 mi
2:30 AM73 °FClear.3 mph78%30.07 "Hg10 mi
2:00 AM75 °FClear.2 mph74%30.07 "Hg10 mi
1:30 AM75 °FClear.1 mph74%30.07 "Hg10 mi
1:00 AM75 °FClear.1 mph74%30.07 "Hg10 mi
12:30 AM77 °FClear.1 mph69%30.07 "Hg10 mi
12:00 AM77 °FClear.2 mph69%30.07 "Hg10 mi
11:30 PM
Sat, Jul 4
77 °FClear.2 mph69%30.07 "Hg10 mi
11:00 PM79 °FClear.2 mph65%30.04 "Hg10 mi
10:30 PM79 °FPassing clouds.3 mph65%30.04 "HgN/A
10:00 PM79 °FPassing clouds.5 mph65%30.04 "HgN/A
9:30 PM79 °FPassing clouds.6 mph65%30.04 "HgN/A
9:00 PM79 °FSunny.7 mph65%30.04 "Hg10 mi
Weather by CustomWeather, © 2015

See weather overviewHow to use our weather pages